Location: Fort Worth, Tx
(32.7431°N, 97.3695°W)
Time: 05:37:34
(UTC-05:00)

Altair - Pass Details

Date: 07 October 2023
Orbit: 1501 x 1682 km, 47.2° (Epoch: 06 December)

Event Time Altitude Azimuth Distance (km) Brightness Sun altitude
Rises 01:44:05 0° 224° (SW) 4,662 - -61.6°
Reaches altitude 10° 01:47:05 10° 223° (SW) 3,700 - -61.8°
Maximum altitude 01:56:26 78° 139° (SE) 1,608 - -62.2°
Drops below altitude 10° 02:06:13 10° 55° (NE) 3,854 - -62.5°
Exits shadow 02:08:15 - 54° (NE) 4,495 10.1 -62.6°
Sets 02:09:24 0° 54° (NE) 4,865 10.3 -62.6°
